EW7337 Weather Reports


time (UTC)temp
C
wind
direction
speed
KPH
gust
KPH
rain 1hr
cm
rain 24hr
cm
rain mn
cm
humidity
%
barometer
mb
20260831035809 23 101 6.4 16.1 0.00 0.00 0.00 52 1029.6
20260831035301 23 107 4.8 16.1 0.00 0.00 0.00 53 1029.6
20260831034757 23 55 3.2 14.5 0.00 0.00 0.00 53 1029.7
20260831034251 23 123 6.4 12.9 0.00 0.00 0.00 54 1029.7
20260831033747 23 85 4.8 12.9 0.00 0.00 0.00 55 1029.7
20260831033246 23 102 3.2 12.9 0.00 0.00 0.00 54 1029.7
20260831033140 23 114 6.4 11.3 0.00 0.00 0.00 54 1029.9
20260831032246 23 59 3.2 12.9 0.00 0.00 0.00 55 1029.9
20260831032136 23 107 4.8 12.9 0.00 0.00 0.00 55 1030.0
20260831031238 23 99 4.8 11.3 0.00 0.00 0.00 54 1030.0
20260831031136 23 93 4.8 14.5 0.00 0.00 0.00 52 1030.0
20260831030528 23 111 1.6 11.3 0.00 0.00 0.00 57 1030.2
20260831030407 23 87 9.7 14.5 0.00 0.00 0.00 52 1030.1
20260831025236 23 153 3.2 16.1 0.00 0.00 0.00 57 1030.3
20260831024736 23 110 4.8 16.1 0.00 0.00 0.00 57 1030.3
20260831023733 23 96 6.4 12.9 0.00 0.00 0.00 56 1030.5
20260831023231 23 180 4.8 12.9 0.00 0.00 0.00 54 1030.5
20260831022728 23 169 1.6 12.9 0.00 0.00 0.00 50 1030.5
20260831022229 23 161 1.6 11.3 0.00 0.00 0.00 51 1030.7
20260831021726 23 129 3.2 8.0 0.00 0.00 0.00 51 1030.8
20260831021225 23 57 3.2 8.0 0.00 0.00 0.00 52 1030.8
20260831020736 23 72 1.6 6.4 0.00 0.00 0.00 52 1030.8
20260831020224 23 170 1.6 9.7 0.00 0.00 0.00 51 1030.9
20260831015719 23 130 1.6 9.7 0.00 0.00 0.00 52 1031.1
20260831015220 22 94 1.6 4.8 0.00 0.00 0.00 53 1031.2
20260831014717 22 138 1.6 8.0 0.00 0.00 0.00 53 1031.3
20260831014213 22 30 3.2 8.0 0.00 0.00 0.00 54 1031.3
20260831013712 22 346 1.6 9.7 0.00 0.00 0.00 52 1031.4
20260831013210 21 42 3.2 14.5 0.00 0.00 0.00 53 1031.5
20260831012709 21 355 3.2 14.5 0.00 0.00 0.00 56 1031.6
20260831012209 21 159 3.2 6.4 0.00 0.00 0.00 55 1031.6
20260831011707 21 130 1.6 6.4 0.00 0.00 0.00 58 1031.6
20260831011212 21 286 1.6 4.8 0.00 0.00 0.00 58 1031.6
20260831010710 21 355 1.6 6.4 0.00 0.00 0.00 59 1031.8
20260831010205 20 280 1.6 6.4 0.00 0.00 0.00 60 1031.8
20260831005706 20 38 1.6 6.4 0.00 0.00 0.00 61 1031.8
20260831005208 20 324 3.2 6.4 0.00 0.00 0.00 61 1031.8
20260831005054 20 355 3.2 4.8 0.00 0.00 0.00 63 1031.8
20260831004204 19 213 1.6 6.4 0.00 0.00 0.00 64 1032.0
20260831003705 19 229 3.2 6.4 0.00 0.00 0.00 65 1032.2
20260831003209 18 282 0.0 4.8 0.00 0.00 0.00 66 1032.1
20260831002710 18 312 0.0 4.8 0.00 0.00 0.00 66 1032.1
20260831002554 18 312 3.2 4.8 0.00 0.00 0.00 68 1032.1
20260831001725 18 292 1.6 9.7 0.00 0.00 0.00 68 1032.1
20260831001535 17 273 3.2 9.7 0.00 0.00 0.00 69 1032.0
20260831000708 17 280 0.0 4.8 0.00 0.00 0.00 70 1032.0
20260831000218 17 315 3.2 4.8 0.00 0.00 0.00 70 1032.0
20260830235710 17 296 0.0 6.4 0.00 0.00 0.00 72 1032.0
20260830235206 17 271 3.2 6.4 0.00 0.00 0.00 73 1031.9
20260830235048 16 284 1.6 4.8 0.00 0.00 0.00 75 1031.9
20260830234204 16 310 3.2 4.8 0.00 0.00 0.00 78 1031.9
20260830233706 16 284 1.6 6.4 0.00 0.00 0.00 79 1032.0
20260830233209 15 266 3.2 6.4 0.00 0.00 0.00 80 1032.0
20260830232726 15 209 3.2 6.4 0.00 0.00 0.00 82 1031.9
20260830232344 14 296 3.2 6.4 0.00 0.00 0.00 85 1031.9
20260830232256 15 245 1.6 4.8 0.00 0.00 0.00 84 1032.0
20260830230705 13 278 1.6 4.8 0.00 0.00 0.00 88 1031.9
20260830230548 13 294 1.6 6.4 0.00 0.00 0.00 89 1031.9
20260830225707 13 277 0.0 6.4 0.00 0.00 0.00 91 1031.8
20260830225208 13 287 1.6 4.8 0.00 0.00 0.00 91 1032.0
20260830224705 12 227 1.6 4.8 0.00 0.00 0.00 92 1032.2
20260830224206 12 203 3.2 4.8 0.00 0.00 0.00 92 1032.2
20260830223705 12 215 0.0 4.8 0.00 0.00 0.00 93 1032.2
20260830223210 12 303 3.2 4.8 0.00 0.00 0.00 93 1032.2
20260830222709 11 217 0.0 1.6 0.00 0.00 0.00 94 1032.2
20260830222208 11 290 0.0 0.0 0.00 0.00 0.00 94 1032.2
20260830221708 11 290 0.0 1.6 0.00 0.00 0.00 94 1032.1
20260830221206 11 290 0.0 4.8 0.00 0.00 0.00 94 1032.1
20260830220706 11 290 3.2 4.8 0.00 0.00 0.00 94 1032.1
20260830220207 10 275 0.0 3.2 0.00 0.00 0.00 95 1032.1
20260830215708 10 267 0.0 0.0 0.00 0.00 0.00 94 1032.0
20260830215217 10 267 0.0 0.0 0.00 0.00 0.00 94 1032.0
20260830215049 10 267 0.0 0.0 0.00 0.00 0.00 94 1031.9
20260830214207 10 267 0.0 0.0 0.00 0.00 0.00 94 1031.9
20260830213704 10 267 0.0 0.0 0.00 0.00 0.00 94 1031.8
20260830213209 10 267 0.0 0.0 0.00 0.00 0.00 95 1031.7
20260830213055 9 267 0.0 0.0 0.00 0.00 0.00 95 1031.7
20260830212210 9 267 0.0 0.0 0.00 0.00 0.00 94 1031.7
20260830211708 8 267 0.0 0.0 0.00 0.00 0.00 94 1031.7
20260830211209 8 267 0.0 0.0 0.00 0.00 0.00 94 1031.7
20260830210708 8 267 0.0 0.0 0.00 0.00 0.00 94 1031.6
20260830210210 8 267 0.0 0.0 0.00 0.00 0.00 93 1031.6
20260830210053 8 267 0.0 0.0 0.00 0.00 0.00 93 1031.5
20260830205209 8 267 0.0 0.0 0.00 0.00 0.00 93 1031.4
20260830204709 8 267 0.0 0.0 0.00 0.00 0.00 93 1031.3
20260830204542 8 267 0.0 0.0 0.00 0.00 0.00 93 1031.3
20260830204032 8 267 0.0 0.0 0.00 0.00 0.00 93 1031.3
20260830203207 8 267 0.0 0.0 0.00 0.00 0.00 93 1031.3
20260830202705 8 267 0.0 0.0 0.00 0.00 0.00 93 1031.3
20260830202207 8 267 0.0 0.0 0.00 0.00 0.00 93 1031.2
20260830202049 8 267 0.0 0.0 0.00 0.00 0.00 93 1031.2
20260830201204 8 267 0.0 0.0 0.00 0.00 0.00 93 1031.1
20260830200706 8 267 0.0 0.0 0.00 0.00 0.00 93 1031.2
20260830200209 8 267 0.0 0.0 0.00 0.00 0.00 93 1031.1
20260830195710 8 267 0.0 0.0 0.00 0.00 0.00 93 1031.0
20260830195209 8 267 0.0 0.0 0.00 0.00 0.00 93 1030.9
20260830194708 8 267 0.0 0.0 0.00 0.00 0.00 93 1031.0
20260830194209 8 267 0.0 0.0 0.00 0.00 0.00 93 1030.9
20260830193709 8 267 0.0 0.0 0.00 0.00 0.00 93 1030.9
20260830193550 8 267 0.0 0.0 0.00 0.00 0.00 93 1030.8
20260830192709 8 267 0.0 0.0 0.00 0.00 0.00 93 1030.7
20260830192211 8 267 0.0 0.0 0.00 0.00 0.00 93 1030.5
20260830191708 8 267 0.0 0.0 0.00 0.00 0.00 93 1030.4
20260830191212 8 267 0.0 0.0 0.00 0.00 0.00 93 1030.4
20260830190705 8 267 0.0 0.0 0.00 0.00 0.00 93 1030.4
20260830190552 8 267 0.0 3.2 0.00 0.00 0.00 93 1030.3
20260830185704 8 267 1.6 3.2 0.00 0.00 0.00 92 1030.3
20260830185205 8 267 1.6 3.2 0.00 0.00 0.00 92 1030.1
20260830184918 8 267 0.0 3.2 0.00 0.00 0.00 92 1030.1
20260830184821 8 267 1.6 3.2 0.00 0.00 0.00 93 1030.2
20260830184048 8 228 0.0 0.0 0.00 0.00 0.00 92 1030.3
20260830183553 8 228 0.0 0.0 0.00 0.00 0.00 92 1030.3
20260830182706 8 228 0.0 0.0 0.00 0.00 0.00 92 1030.3
20260830182208 8 228 0.0 0.0 0.00 0.00 0.00 93 1030.5
20260830181712 8 228 0.0 0.0 0.00 0.00 0.00 92 1030.5
20260830181211 8 228 0.0 0.0 0.00 0.00 0.00 92 1030.5
20260830180709 8 228 0.0 0.0 0.00 0.00 0.00 92 1030.5
20260830180209 8 228 0.0 0.0 0.00 0.00 0.00 92 1030.6
20260830175706 8 228 0.0 0.0 0.00 0.00 0.00 92 1030.5
20260830175203 8 228 0.0 0.0 0.00 0.00 0.00 92 1030.6
20260830175021 8 228 0.0 0.0 0.00 0.00 0.00 92 1030.5
20260830174156 8 228 0.0 0.0 0.00 0.00 0.00 92 1030.5
20260830173738 8 228 0.0 0.0 0.00 0.00 0.00 92 1030.6
20260830173320 8 228 0.0 0.0 0.00 0.00 0.00 92 1030.7
20260830172143 8 228 0.0 0.0 0.00 0.00 0.00 91 1030.7
20260830171643 8 228 0.0 0.0 0.00 0.00 0.00 91 1030.7
20260830171140 8 228 0.0 0.0 0.00 0.00 0.00 91 1030.7
20260830170636 8 228 0.0 0.0 0.00 0.00 0.00 91 1030.7
20260830170136 8 228 0.0 0.0 0.00 0.00 0.00 91 1030.9
20260830170012 8 228 0.0 0.0 0.00 0.00 0.00 91 1030.9
20260830165129 8 228 0.0 0.0 0.00 0.00 0.00 91 1030.9
20260830164623 8 228 0.0 0.0 0.00 0.00 0.00 91 1030.8
20260830163949 8 228 0.0 0.0 0.00 0.00 0.00 91 1030.9
20260830163123 8 228 0.0 0.0 0.00 0.00 0.00 91 1031.0
20260830162946 8 228 0.0 0.0 0.00 0.00 0.00 91 1030.9
20260830162119 8 228 0.0 0.0 0.00 0.00 0.00 91 1030.9
20260830161612 8 228 0.0 0.0 0.00 0.00 0.00 91 1031.0
20260830161107 8 228 0.0 0.0 0.00 0.00 0.00 91 1031.0
20260830160606 9 228 0.0 0.0 0.00 0.00 0.00 91 1031.2
20260830160110 9 228 0.0 0.0 0.00 0.00 0.00 90 1031.2
20260830155925 9 228 0.0 0.0 0.00 0.00 0.00 90 1031.1
20260830155449 9 228 0.0 0.0 0.00 0.00 0.00 90 1031.2
20260830154828 9 228 0.0 0.0 0.00 0.00 0.00 90 1031.2
20260830154735 9 228 0.0 0.0 0.00 0.00 0.00 90 1031.2
20260830153844 9 228 0.0 0.0 0.00 0.00 0.00 90 1031.2
20260830153740 9 228 0.0 0.0 0.00 0.00 0.00 90 1031.3
20260830152610 9 228 0.0 0.0 0.00 0.00 0.00 90 1031.2
20260830152112 9 228 0.0 0.0 0.00 0.00 0.00 90 1031.2
20260830151608 9 228 0.0 0.0 0.00 0.00 0.00 90 1031.3
20260830151111 9 228 0.0 0.0 0.00 0.00 0.00 90 1031.3
20260830150609 9 228 0.0 0.0 0.00 0.00 0.00 90 1031.2
20260830150156 10 228 0.0 0.0 0.00 0.00 0.00 90 1031.2
20260830145734 10 228 0.0 0.0 0.00 0.00 0.00 89 1031.2
20260830144610 10 228 0.0 0.0 0.00 0.00 0.00 90 1031.5
20260830144516 10 228 0.0 0.0 0.00 0.00 0.00 89 1031.5
20260830143622 10 228 0.0 0.0 0.00 0.00 0.00 89 1031.4
20260830143123 10 228 0.0 0.0 0.00 0.00 0.00 89 1031.5
20260830142609 10 228 0.0 0.0 0.00 0.00 0.00 89 1031.5
20260830142451 10 228 0.0 0.0 0.00 0.00 0.00 89 1031.5
20260830141615 10 228 0.0 0.0 0.00 0.00 0.00 89 1031.5
20260830141109 10 228 0.0 0.0 0.00 0.00 0.00 89 1031.5
20260830140605 10 228 0.0 0.0 0.00 0.00 0.00 89 1031.6
20260830140111 10 228 0.0 0.0 0.00 0.00 0.00 88 1031.7
20260830135609 10 228 0.0 0.0 0.00 0.00 0.00 88 1031.6
20260830135108 10 228 0.0 0.0 0.00 0.00 0.00 88 1031.7
20260830134606 10 228 0.0 0.0 0.00 0.00 0.00 88 1031.6
20260830134106 10 228 0.0 0.0 0.00 0.00 0.00 88 1031.6
20260830133610 10 228 0.0 0.0 0.00 0.00 0.00 88 1031.6
20260830133520 10 228 0.0 0.0 0.00 0.00 0.00 88 1031.6
20260830132608 11 228 0.0 0.0 0.00 0.00 0.00 88 1031.6
20260830132456 11 228 0.0 0.0 0.00 0.00 0.00 88 1031.7
20260830131608 11 228 0.0 3.2 0.00 0.00 0.00 87 1031.7
20260830131112 11 228 1.6 3.2 0.00 0.00 0.00 87 1031.6
20260830130612 11 105 0.0 0.0 0.00 0.00 0.00 87 1031.6
20260830130500 11 105 0.0 0.0 0.00 0.00 0.00 87 1031.6
20260830125610 11 105 0.0 1.6 0.00 0.00 0.00 87 1031.6
20260830125112 11 105 1.6 8.0 0.00 0.00 0.00 87 1031.6
20260830124606 11 134 0.0 8.0 0.00 0.00 0.00 87 1031.6
20260830124110 11 142 1.6 3.2 0.00 0.00 0.00 87 1031.5
20260830123604 11 115 3.2 4.8 0.00 0.00 0.00 86 1031.4
20260830123104 11 112 3.2 4.8 0.00 0.00 0.00 86 1031.4
20260830122606 11 46 0.0 0.0 0.00 0.00 0.00 85 1031.3
20260830122454 11 46 0.0 0.0 0.00 0.00 0.00 85 1031.1
20260830121602 11 46 0.0 0.0 0.00 0.00 0.00 84 1031.3
20260830121118 11 46 0.0 0.0 0.00 0.00 0.00 84 1031.3
20260830120608 11 46 0.0 0.0 0.00 0.00 0.00 84 1031.3
20260830120111 11 46 0.0 0.0 0.00 0.00 0.00 84 1031.2
20260830115607 12 46 0.0 0.0 0.00 0.00 0.00 83 1031.3
20260830115111 12 46 0.0 0.0 0.00 0.00 0.00 83 1031.3
20260830114607 12 46 0.0 0.0 0.00 0.00 0.00 83 1031.3
20260830114108 12 46 0.0 0.0 0.00 0.00 0.00 83 1031.2
20260830113608 12 46 0.0 0.0 0.00 0.00 0.00 82 1031.2
20260830113109 12 46 0.0 0.0 0.00 0.00 0.00 82 1031.3
20260830112609 12 46 0.0 0.0 0.00 0.00 0.00 82 1031.4
20260830112109 12 46 0.0 0.0 0.00 0.00 0.00 81 1031.3
20260830111614 12 46 0.0 0.0 0.00 0.00 0.00 81 1031.5
20260830111111 12 46 0.0 0.0 0.00 0.00 0.00 80 1031.4
20260830110606 12 46 0.0 0.0 0.00 0.00 0.00 79 1031.3
20260830110105 13 46 0.0 0.0 0.00 0.00 0.00 79 1031.2
20260830105607 13 46 0.0 0.0 0.00 0.00 0.00 78 1031.1
20260830105106 13 46 0.0 0.0 0.00 0.00 0.00 78 1031.2
20260830104605 13 46 0.0 0.0 0.00 0.00 0.00 77 1031.2
20260830104103 13 46 0.0 0.0 0.00 0.00 0.00 77 1031.1
20260830103611 13 46 0.0 0.0 0.00 0.00 0.00 77 1030.9
20260830103112 13 46 0.0 0.0 0.00 0.00 0.00 76 1031.0
20260830102607 13 46 0.0 0.0 0.00 0.00 0.00 76 1030.8
20260830102107 13 46 0.0 0.0 0.00 0.00 0.00 76 1030.8
20260830101612 14 46 0.0 0.0 0.00 0.00 0.00 75 1030.9
20260830101105 14 46 0.0 0.0 0.00 0.00 0.00 76 1030.8
20260830100605 14 46 0.0 0.0 0.00 0.00 0.00 75 1030.9
20260830100448 14 46 0.0 0.0 0.00 0.00 0.00 75 1030.7
20260830095924 14 46 0.0 0.0 0.00 0.00 0.00 75 1030.6
20260830095106 15 46 0.0 0.0 0.00 0.00 0.00 75 1030.7
20260830094950 15 46 0.0 0.0 0.00 0.00 0.00 74 1030.6
20260830094445 15 46 0.0 0.0 0.00 0.00 0.00 74 1030.5
20260830093607 15 46 0.0 0.0 0.00 0.00 0.00 74 1030.4
20260830093108 15 46 0.0 0.0 0.00 0.00 0.00 74 1030.5
20260830092608 15 46 0.0 0.0 0.00 0.00 0.00 74 1030.4
20260830092108 15 46 0.0 1.6 0.00 0.00 0.00 74 1030.5
20260830091614 15 46 0.0 6.4 0.00 0.00 0.00 73 1030.4
20260830091111 15 46 3.2 6.4 0.00 0.00 0.00 72 1030.4
20260830090926 15 16 0.0 6.4 0.00 0.00 0.00 71 1030.4
20260830090105 15 28 3.2 6.4 0.00 0.00 0.00 71 1030.3
20260830085603 16 41 0.0 4.8 0.00 0.00 0.00 70 1030.3
20260830085455 16 42 1.6 4.8 0.00 0.00 0.00 69 1030.3
20260830085003 16 60 0.0 1.6 0.00 0.00 0.00 69 1030.1
20260830084105 16 60 0.0 3.2 0.00 0.00 0.00 68 1030.0
20260830083607 16 60 0.0 3.2 0.00 0.00 0.00 68 1030.0
20260830083108 16 24 0.0 1.6 0.00 0.00 0.00 67 1030.0
20260830082606 17 61 0.0 1.6 0.00 0.00 0.00 67 1030.0
20260830082108 17 61 0.0 1.6 0.00 0.00 0.00 67 1029.9
20260830081607 17 57 0.0 3.2 0.00 0.00 0.00 66 1029.8
20260830081110 17 57 0.0 3.2 0.00 0.00 0.00 66 1029.9
20260830080608 17 109 1.6 6.4 0.00 0.00 0.00 65 1029.8
20260830080108 17 62 0.0 6.4 0.00 0.00 0.00 63 1029.8
20260830075835 18 107 3.2 9.7 0.00 0.00 0.00 61 1029.6
20260830075734 18 82 1.6 6.4 0.00 0.00 0.00 62 1029.8
20260830074608 18 115 4.8 9.7 0.00 0.00 0.00 60 1029.7
20260830074110 19 103 3.2 4.8 0.00 0.00 0.00 58 1029.7
20260830073607 19 94 1.6 3.2 0.00 0.00 0.00 57 1029.7
20260830073111 20 99 0.0 3.2 0.00 0.00 0.00 56 1029.6
20260830072606 20 99 0.0 1.6 0.00 0.00 0.00 55 1029.6
20260830072107 20 96 0.0 1.6 0.00 0.00 0.00 54 1029.6
20260830071604 20 50 1.6 3.2 0.00 0.00 0.00 54 1029.5
20260830071503 20 73 0.0 6.4 0.00 0.00 0.00 53 1029.6
20260830070604 20 103 3.2 6.4 0.00 0.00 0.00 53 1029.7
20260830070106 20 94 1.6 6.4 0.00 0.00 0.00 52 1029.5
20260830065604 21 103 1.6 6.4 0.00 0.00 0.00 52 1029.5
20260830065104 21 93 1.6 6.4 0.00 0.00 0.00 52 1029.5
20260830064950 21 49 3.2 6.4 0.00 0.00 0.00 53 1029.5
20260830064501 21 80 1.6 4.8 0.00 0.00 0.00 54 1029.5
20260830063607 21 81 3.2 11.3 0.00 0.00 0.00 54 1029.5
20260830063109 21 100 3.2 11.3 0.00 0.00 0.00 54 1029.5
20260830062606 21 88 1.6 9.7 0.00 0.00 0.00 55 1029.4
20260830062109 21 88 3.2 11.3 0.00 0.00 0.00 55 1029.5
20260830061608 21 89 3.2 11.3 0.00 0.00 0.00 54 1029.5
20260830061107 21 117 1.6 11.3 0.00 0.00 0.00 53 1029.4
20260830060607 22 123 1.6 12.9 0.00 0.00 0.00 53 1029.6
20260830060109 22 117 3.2 12.9 0.00 0.00 0.00 52 1029.4
20260830055607 22 167 3.2 11.3 0.00 0.00 0.00 48 1029.5
20260830055108 22 105 3.2 11.3 0.00 0.00 0.00 47 1029.6
20260830054606 22 122 1.6 9.7 0.00 0.00 0.00 48 1029.5
20260830054110 22 155 3.2 9.7 0.00 0.00 0.00 48 1029.6
20260830053606 22 157 4.8 9.7 0.00 0.00 0.00 49 1029.6
20260830053108 22 167 1.6 11.3 0.00 0.00 0.00 48 1029.4
20260830052950 22 113 4.8 11.3 0.00 0.00 0.00 49 1029.6
20260830052112 22 109 1.6 9.7 0.00 0.00 0.00 48 1029.6
20260830051609 22 95 1.6 11.3 0.00 0.00 0.00 49 1029.6
20260830051106 22 101 3.2 11.3 0.00 0.00 0.00 49 1029.7
20260830050604 23 148 4.8 9.7 0.00 0.00 0.00 49 1029.7
20260830050105 23 123 3.2 9.7 0.00 0.00 0.00 50 1029.7
20260830045604 23 113 3.2 9.7 0.00 0.00 0.00 50 1029.6
20260830045104 23 98 3.2 9.7 0.00 0.00 0.00 49 1029.6
20260830044602 23 111 3.2 9.7 0.00 0.00 0.00 49 1029.7
20260830044105 23 138 3.2 12.9 0.00 0.00 0.00 47 1029.7
20260830043608 22 146 3.2 12.9 0.00 0.00 0.00 47 1029.6
20260830043109 22 155 4.8 11.3 0.00 0.00 0.00 47 1029.7
20260830042606 22 104 3.2 12.9 0.00 0.00 0.00 44 1029.7
20260830042114 22 104 3.2 12.9 0.00 0.00 0.00 43 1029.7
20260830041603 22 180 6.4 12.9 0.00 0.00 0.00 42 1029.6
20260830041106 22 112 3.2 12.9 0.00 0.00 0.00 44 1029.7
20260830041006 22 154 4.8 12.9 0.00 0.00 0.00 43 1029.7
20260830040113 22 126 4.8 16.1 0.00 0.00 0.00 43 1029.7